SCP
0 0 0 0 0 0 0 0 0 0 0 0 0 0 0 0 0 0 0 0 0 0 0 0 0 0 0 0 0 0 0 0 -0 0 0 -0 -0 -0 -0 0 0 0 0 0 0 0 0 0 -0 0 0 -0 -0 0
0 0 0 0 0 0 0 0 0 0 0 0 0 0 0 0 0 0 0 0 0 0 0 0 0 -0 -0 -0 0 0 0 -0 0 0 -0 -0 0 0 -0 -0 0 0 0 0 0 0 -0 0 0 -0 -0 -0 -0 0
0 0 0 0 0 0 0 0 0 0 0 0 0 0 0 0 0 0 0 0 0 0 0 0 0 0 0 0 0 0 0 0 0 0 -0 0 0 0 -0 0 0 0 0 0 0 0 -0 -0 -0 -0 -0 0 0 0
0 0 0 0 0 0 0 0 0 0 0 0 0 0 0 0 0 0 0 0 0 0 0 0 0 0 0 0 -0 -0 -0 0 0 0 -0 0 0 0 0 0 0 0 0 0 0 -0 -0 0 -0 -0 -0 0 0 0
0 0 0 0 0 0 0 0 0 0 0 0 0 0 0 0 0 0 0 0 0 0 0 0 0 0 0 0 -0 -0 -0 -0 0 0 0 0 0 -0 0 0 0 0 0 0 0 -0 -0 -0 -0 0 -0 0 0 0
0 0 0 0 0 0 0 0 0 0 0 0 0 0 0 0 0 0 0 0 0 0 0 0 0 0 0 0 0 -0 -0 -0 0 0 0 0 0 0 -0 0 -0 0 0 0 -0 0 0 0 0 -0 0 0 0 0
0 0 0 0 0 0 0 0 0 0 0 0 0 0 0 0 0 0 0 0 0 0 0 0 0 0 0 0 0 0 0 0 0 0 0 0 0 0 -0 -0 -0 -0 -0 -0 -0 0 -0 -0 0 0 0 0 0 0
0 0 0 0 0 0 0 0 0 0 0 0 0 0 0 0 0 0 0 0 0 0 0 0 0 0 0 0 0 0 0 0 0 0 0 0 0 -0 -0 -0 -0 -0 -0 -0 -0 0 -0 -0 0 0 0 0 0 0
0 0 0 0 0 0 0 0 0 0 0 0 0 0 0 0 0 0 0 0 0 0 0 0 0 0 0 0 0 0 0 0 0 0 0 0 0 -0 -0 -0 -0 -0 -0 -0 -0 0 -0 -0 0 0 0 0 0 0
0 0 0 0 0 0 0 0 0 0 0 0 0 0 0 0 0 0 0 0 0 0 0 0 0 -0 -0 -0 0 0 0 0 0 0 0 0 -0 -0 -0 -0 -0 -0 -0 -0 -0 0 0 0 0 0 0 0 0 0
0 0 0 0 0 0 0 0 0 0 0 0 0 0 0 0 0 0 0 0 0 0 0 0 0 -0 -0 -0 -0 0 0 0 0 0 0 -0 -0 0 0 -0 -0 -0 -0 -0 -0 -0 -0 0 0 0 0 0 0 0
0 0 0 0 0 0 0 0 0 0 0 0 0 0 0 0 0 0 0 0 0 0 0 0 0 0 -0 -0 0 0 0 0 -0 -0 0 0 -0 0 0 -0 -0 -0 -0 -0 -0 -0 0 0 0 0 0 0 0 0
0 0 0 0 0 0 0 0 0 0 0 0 0 0 0 0 0 0 0 0 0 0 0 0 0 0 0 0 0 0 -0 -0 0 -0 -0 0 -0 0 0 -0 -0 -0 -0 -0 -0 0 -0 -0 0 0 0 0 0 0
0 0 0 0 0 0 0 0 0 0 0 0 0 0 0 0 0 0 0 0 0 0 0 0 0 0 0 0 0 0 0 -0 -0 -0 -0 -0 0 0 0 0 0 -0 -0 0 0 0 0 -0 0 0 0 0 0 0
0 0 0 0 0 0 0 0 0 0 0 0 0 0 0 0 0 0 0 0 0 0 0 0 0 0 0 0 0 -0 -0 -0 -0 -0 0 -0 0 -0 0 0 -0 -0 -0 0 0 0 -0 -0 -0 -0 0 0 0 0
0 0 0 0 0 0 -0 0 0 0 0 0 0 0 0 0 0 0 -0 0 0 0 0 0 0 0 -0 -0 -0 0 0 0 0 0 0 -0 -0 0 -0 0 -0 0 0 0 0 0 0 -0 -0 -0 -0 -0 0 0
0 0 0 -0 -0 -0 0 0 0 0 0 0 0 0 0 0 -0 0 0 0 0 0 0 0 0 0 0 0 0 0 0 0 0 0 0 0 -0 0 -0 0 -0 -0 -0 0 0 -0 0 0 0 -0 -0 -0 -0 -0
0 0 0 -0 0 0 0 0 0 0 0 0 0 0 0 0 0 0 0 0 0 0 0 0 0 0 0 0 0 0 0 0 0 0 0 0 -0 0 -0 -0 -0 0 0 0 -0 -0 -0 0 0 0 0 0 0 0
-0 -0 -0 0 0 0 0 0 -0 0 0 -0 0 0 0 0 0 0 0 0 0 0 0 0 0 0 0 0 0 0 0 0 0 0 0 0 0 -0 0 -0 0 -0 -0 -0 -0 -0 -0 0 0 0 0 0 0 0
-0 0 0 0 0 0 -0 0 0 -0 -0 0 0 0 -0 0 0 -0 0 0 0 -0 0 0 0 0 0 0 0 0 0 0 0 0 0 0 0 0 0 -0 -0 -0 -0 -0 0 -0 0 -0 -0 -0 0 0 0 0
0 0 0 0 0 -0 -0 -0 0 0 0 0 0 0 0 0 0 0 0 0 -0 0 0 0 0 0 0 0 -0 -0 0 0 0 0 0 0 0 0 0 0 0 0 0 -0 -0 -0 -0 0 0 0 -0 0 0 0
0 -0 0 0 0 0 0 0 0 -0 0 0 0 0 0 -0 0 -0 -0 -0 0 0 0 0 0 0 0 0 0 0 0 0 0 0 0 0 0 0 0 0 0 0 0 -0 -0 -0 -0 -0 0 0 0 0 0 0
-0 -0 -0 0 0 0 0 0 0 0 0 0 0 0 0 -0 0 0 0 0 -0 0 0 0 0 0 0 0 0 0 0 0 0 0 0 0 0 0 0 0 0 -0 0 0 0 0 0 -0 0 0 0 0 0 0
-0 0 0 0 0 0 0 0 0 0 0 0 0 -0 -0 -0 0 0 0 0 -0 -0 0 0 0 0 0 0 0 0 0 0 0 0 0 0 0 0 0 0 0 0 0 0 -0 0 0 -0 -0 -0 0 0 0 0
0 0 0 0 0 0 -0 0 0 0 -0 0 0 0 0 -0 -0 -0 0 0 -0 -0 -0 -0 0 0 0 0 0 0 0 0 0 0 0 0 0 0 0 0 0 0 0 0 0 0 0 0 0 -0 -0 -0 -0 -0
0 0 0 0 0 0 -0 -0 0 -0 -0 -0 0 -0 -0 0 -0 -0 -0 -0 -0 -0 -0 -0 -0 -0 0 0 0 0 0 0 0 0 0 0 0 0 0 0 0 0 0 0 0 0 0 0 0 -0 -0 -0 0 -0
0 0 0 0 0 0 -0 0 -0 0 0 -0 -0 -0 -0 0 0 0 0 0 0 -0 -0 -0 -0 -0 -0 0 0 0 0 0 0 0 0 0 0 0 0 0 0 0 0 0 0 0 0 0 0 -0 0 0 -0 -0
0 0 0 0 0 0 0 0 0 0 0 0 -0 -0 0 0 0 0 0 0 -0 0 -0 0 0 0 -0 -0 0 0 0 0 0 0 0 0 0 0 0 0 0 0 0 0 0 0 0 0 0 0 0 0 0 0
0 0 0 0 0 0 0 0 0 0 0 0 0 -0 -0 0 0 0 0 0 0 0 -0 0 -0 -0 -0 0 -0 0 -0 0 -0 -0 0 0 0 0 0 0 0 0 0 0 0 0 0 0 0 0 0 0 0 0
0 0 0 0 0 0 0 0 0 0 0 0 0 0 0 0 0 0 0 0 0 0 -0 -0 0 -0 -0 -0 -0 0 0 0 0 0 0 0 0 0 0 0 0 0 0 0 0 0 0 0 0 0 0 0 0 0
0 0 0 0 0 0 0 0 0 0 0 0 0 0 0 0 0 0 0 0 0 0 0 0 0 0 0 0 -0 -0 0 0 0 0 -0 0 0 0 0 0 0 0 0 0 0 0 0 0 0 0 0 0 0 0
0 0 0 0 0 0 0 0 0 0 0 0 0 0 0 0 0 0 0 0 0 0 0 0 0 0 0 0 0 0 -0 -0 0 0 0 0 0 0 0 0 0 0 0 0 0 0 0 0 0 0 0 0 0 0
0 0 0 0 0 0 0 0 0 0 0 0 0 0 0 0 0 0 0 0 0 0 0 0 0 0 0 0 0 0 0 0 0 0 -0 0 0 0 0 0 0 0 0 0 0 0 0 0 0 0 0 0 0 0
Wind_Speed_500mb
34 38 41 47 51 56 56 54 53 48 46 44 40 35 30 21 16 18 23 25 27 27 52 51 45 35 25 17 7 17 22 3 13 6 6 6 5 7 8 18 16 6 8 4 6 10 6 18 21 9 19 54 44 45
31 36 44 50 54 54 52 54 51 45 45 44 41 38 31 26 16 19 30 22 28 35 46 60 62 60 62 57 40 12 12 15 10 6 5 6 6 7 12 8 9 4 5 6 6 8 31 42 21 49 52 54 61 49
36 41 46 52 55 52 53 54 50 46 44 44 41 37 33 28 23 19 28 26 32 36 51 25 7 9 17 18 27 21 17 17 12 12 5 6 10 6 6 9 13 11 18 5 8 9 29 43 29 32 38 55 68 53
36 40 48 53 54 51 52 52 50 46 46 45 41 38 35 30 27 23 27 23 26 19 11 9 13 34 30 37 39 50 27 10 13 9 8 6 7 10 7 11 14 13 13 7 14 26 36 4 39 44 51 52 20 11
37 41 48 52 51 51 52 51 49 47 45 45 42 40 37 34 30 29 33 32 33 27 10 26 51 9 9 19 32 39 44 36 18 6 7 6 10 9 8 7 15 8 17 5 7 33 24 18 44 43 54 49 23 17
40 43 49 50 50 51 52 51 49 48 46 43 40 38 41 36 26 14 9 6 7 29 9 8 15 11 10 11 18 29 33 29 16 9 7 10 15 6 5 7 10 24 28 27 18 39 35 35 38 45 54 45 27 24
40 45 48 50 49 49 51 51 49 48 46 41 43 43 35 26 24 18 8 7 11 16 8 11 11 7 9 12 10 14 23 15 18 9 13 10 10 13 5 8 15 29 32 23 26 37 31 35 35 43 50 42 36 42
42 44 47 48 48 48 48 49 50 48 44 44 44 35 25 15 17 20 15 27 17 16 9 6 9 12 10 9 9 15 12 16 16 10 11 8 9 8 8 8 18 22 21 20 28 29 30 35 36 38 38 33 48 54
42 44 47 47 47 46 45 47 50 50 45 44 37 19 9 4 5 7 10 13 19 23 8 8 5 6 2 10 7 13 10 7 10 7 8 8 4 9 7 12 18 23 22 24 26 34 39 41 39 38 39 42 44 47
42 44 45 45 46 43 43 44 48 49 46 38 16 6 6 7 12 16 11 10 13 16 14 9 17 12 21 12 7 4 11 5 6 10 6 5 8 21 15 6 9 14 19 21 30 33 36 41 41 37 33 31 31 40
40 42 42 42 43 42 42 40 43 47 45 27 14 7 18 16 8 10 9 12 15 9 14 16 25 16 9 9 6 5 3 4 5 4 6 4 5 2 8 7 7 10 14 17 19 21 25 23 27 32 33 31 38 44
38 37 36 38 39 39 38 34 34 35 26 32 30 35 17 4 14 10 9 8 10 8 12 10 5 11 9 9 7 4 5 4 4 6 6 5 1 8 9 8 7 9 12 16 18 22 28 30 33 32 26 26 30 32
33 31 32 32 33 32 32 35 35 36 40 18 7 8 8 8 9 11 10 8 8 8 6 3 2 6 9 10 8 5 7 5 4 5 5 5 5 13 11 8 6 7 11 14 15 22 28 31 35 36 31 25 23 26
28 26 26 28 28 28 35 38 38 37 18 7 7 9 8 7 8 7 12 12 9 6 6 15 7 5 11 9 7 7 5 3 5 5 4 5 4 14 16 9 6 5 8 13 15 21 28 29 33 36 37 32 25 26
23 21 22 20 24 31 35 38 37 21 8 8 8 8 7 14 25 25 24 26 16 17 16 15 9 10 4 2 5 3 7 6 6 3 7 9 7 15 17 14 8 5 8 11 13 18 24 28 31 33 35 33 33 32
17 17 14 23 28 32 35 34 17 6 5 5 9 11 19 27 21 18 21 19 25 22 23 15 8 5 7 2 8 9 3 4 3 3 9 7 2 16 19 14 12 8 9 10 11 13 18 23 27 28 31 35 36 37
11 8 20 24 25 28 29 12 7 3 4 6 8 19 22 25 29 29 28 22 22 23 8 8 6 5 2 3 4 3 2 7 16 14 8 6 2 11 13 11 12 15 11 11 12 11 14 18 20 23 31 30 33 37
5 11 17 20 24 22 8 7 5 4 5 12 18 30 32 28 29 32 26 19 16 15 16 9 15 6 4 5 3 3 3 15 20 11 13 7 5 10 14 10 13 13 16 12 9 12 13 12 17 22 24 23 26 28
5 8 10 15 19 12 6 5 5 7 8 22 20 27 29 29 31 28 27 25 20 16 14 12 10 8 5 15 24 28 31 31 31 28 22 14 12 5 15 18 14 16 18 20 18 12 11 11 12 15 18 19 23 22
1 5 14 16 11 1 3 2 5 8 9 16 26 32 39 29 26 20 17 13 10 11 9 7 8 15 17 21 26 32 31 31 33 32 24 14 15 9 4 15 19 21 20 21 20 20 15 15 14 15 16 19 20 23
2 12 15 4 4 2 1 6 6 8 16 15 27 38 29 26 19 10 7 11 5 8 10 14 24 28 31 31 25 24 31 30 29 27 31 32 19 19 10 10 16 24 27 28 27 23 20 17 16 17 19 18 20 23
5 9 7 7 4 2 2 4 11 19 10 20 26 29 21 21 17 21 24 14 11 14 27 31 33 39 39 32 31 29 28 28 28 24 24 23 29 22 18 12 24 31 32 30 30 29 26 23 22 21 22 23 22 23
2 8 4 4 3 1 4 8 6 9 6 20 24 13 10 13 18 30 9 18 14 38 39 36 31 27 29 31 26 20 25 31 31 28 23 20 22 31 25 19 22 26 32 34 33 33 32 31 30 26 26 24 22 25
11 5 4 2 2 3 7 4 6 9 8 12 9 12 13 16 22 7 6 14 37 47 56 59 51 40 33 31 28 29 27 30 32 30 24 25 22 19 20 21 25 25 26 29 36 37 36 36 38 32 29 27 26 24
5 3 5 2 2 1 3 5 6 5 6 17 7 7 9 11 4 7 8 28 42 47 59 62 58 49 49 47 40 36 29 28 30 35 28 23 25 21 17 17 20 22 26 30 37 42 42 40 39 37 35 33 31 31
5 7 7 6 5 3 3 4 3 8 8 6 5 11 8 6 6 8 14 33 38 50 57 56 50 52 55 58 56 50 36 23 17 20 19 23 16 13 17 18 16 21 28 33 34 42 45 46 45 44 41 40 40 35
6 7 9 7 3 4 5 4 7 4 4 4 6 8 6 6 7 8 22 29 40 40 40 38 38 42 49 59 65 65 47 31 20 15 9 13 10 6 6 4 4 5 13 27 34 40 45 47 47 48 45 43 43 37
5 9 9 11 7 5 4 3 4 4 3 2 8 5 4 5 5 13 18 30 31 32 32 33 35 36 43 54 60 63 64 57 46 32 28 36 37 25 10 9 8 14 19 18 27 34 41 44 44 47 48 48 49 43
9 11 10 9 8 8 10 8 5 3 3 5 3 4 6 4 6 11 18 23 25 27 32 37 41 36 36 34 46 59 64 66 66 65 62 64 64 55 44 29 10 13 4 12 31 30 32 36 42 47 56 56 54 46
13 17 9 10 7 10 10 10 6 6 6 1 7 10 10 8 10 14 15 19 24 28 28 29 35 38 41 43 42 44 54 61 65 63 57 57 57 51 44 43 32 8 16 1 15 26 27 32 41 43 47 53 57 56
16 15 8 8 6 7 5 6 7 8 9 7 10 14 15 14 8 14 23 20 19 20 24 28 31 38 38 41 44 44 46 56 55 53 51 49 47 49 49 44 41 34 16 17 20 19 18 22 29 35 42 47 48 52
17 14 11 8 6 7 5 5 5 11 13 10 7 12 12 10 6 6 23 23 21 23 24 25 29 31 32 30 29 31 35 39 48 52 54 51 51 52 48 47 43 36 29 27 23 24 24 21 21 24 29 31 32 42
11 13 12 7 5 5 5 4 4 7 6 6 6 8 8 6 7 5 10 22 25 26 24 21 21 19 25 29 31 30 31 31 34 37 39 43 45 46 45 47 47 47 45 43 36 27 23 18 17 13 10 11 19 30
Wind_Direction_500mb
327 330 329 327 331 332 333 332 331 331 332 329 326 324 320 315 277 270 274 272 261 270 279 275 274 260 249 230 245 302 319 84 288 325 331 7 291 315 291 287 294 288 302 297 261 239 262 1 318 248 332 312 299 305
321 324 326 330 329 330 331 331 331 335 334 331 327 323 322 317 294 267 274 270 283 263 266 285 278 264 255 253 258 239 272 326 276 306 337 314 277 264 301 290 319 291 258 289 246 299 288 295 257 278 278 274 284 287
311 321 328 325 326 327 329 330 330 333 331 331 330 325 323 316 308 259 267 277 283 283 298 273 277 276 235 219 224 221 241 217 227 239 302 279 266 277 279 286 311 296 310 262 307 280 294 311 301 302 298 280 283 270
311 322 322 323 325 326 328 329 328 331 328 328 327 327 326 321 314 299 266 252 264 276 280 269 294 294 272 244 232 230 240 249 265 254 240 256 257 241 274 283 289 269 345 276 259 274 310 266 320 337 327 328 346 297
310 320 320 323 324 326 327 327 328 329 327 324 324 323 312 310 301 292 281 264 241 234 282 293 304 278 242 225 229 226 230 240 263 261 222 243 252 278 260 269 255 316 328 268 284 302 317 318 337 341 340 341 7 9
308 317 320 321 322 324 324 326 328 327 325 325 320 317 310 302 295 296 304 232 249 219 259 288 308 274 246 252 226 217 220 225 220 244 239 241 251 234 282 280 332 314 325 327 328 330 313 331 329 344 341 346 15 24
309 315 317 320 322 322 322 324 327 325 328 324 320 315 308 291 262 211 240 234 294 191 252 281 282 230 230 216 189 192 201 205 214 235 225 248 253 203 250 285 318 340 344 341 339 344 347 355 346 346 345 0 27 50
312 314 317 320 321 321 322 323 324 324 328 325 323 314 303 295 249 261 264 251 239 205 246 267 268 260 197 229 207 185 191 206 217 245 242 239 261 223 251 327 343 353 339 351 359 11 0 349 349 346 353 7 36 39
312 314 317 319 320 320 322 324 323 325 331 330 324 312 295 275 227 252 229 267 253 220 263 238 265 302 217 265 257 195 191 215 217 230 240 218 199 242 318 350 5 2 359 358 4 16 2 358 352 355 7 13 31 33
311 314 317 318 319 320 322 324 323 329 336 335 336 296 254 224 249 280 279 212 203 202 230 248 236 250 302 281 254 210 187 227 235 218 225 244 260 265 260 294 359 19 7 13 16 14 5 353 352 359 8 22 18 27
310 314 317 318 319 321 326 328 328 331 341 355 334 280 273 272 261 224 241 216 186 221 216 227 226 239 250 248 285 329 325 264 265 89 282 303 270 89 139 144 73 56 27 22 30 17 18 4 360 1 7 18 28 27
312 316 318 317 319 325 328 329 334 339 327 313 297 292 299 253 224 235 211 208 224 238 187 233 190 221 253 240 256 183 249 236 268 336 266 261 265 138 162 137 99 66 47 26 33 25 20 22 22 26 32 33 33 36
313 315 315 316 319 327 337 337 332 331 332 310 273 264 238 222 240 228 214 219 215 212 76 114 182 272 224 221 251 233 232 242 327 249 270 280 33 154 160 147 121 78 48 35 43 33 24 28 32 38 43 52 47 43
309 317 314 313 317 323 330 329 331 337 330 283 276 271 241 213 244 261 294 351 346 111 283 274 195 238 224 178 227 227 155 212 233 232 263 15 265 183 162 170 148 99 61 33 35 38 37 31 28 33 38 47 61 61
312 316 315 319 324 327 326 319 319 317 270 270 264 257 241 323 314 305 316 320 324 316 312 310 253 173 267 354 258 237 190 233 218 245 29 3 301 200 181 171 181 149 90 55 36 33 36 39 39 39 39 44 55 62
314 320 321 327 327 327 320 320 319 279 252 272 265 295 315 319 332 338 344 343 333 327 307 269 268 267 228 236 201 203 209 229 354 21 13 340 251 199 197 185 181 180 116 91 67 62 53 53 50 53 50 50 51 60
321 321 325 329 336 337 337 2 37 9 302 294 283 297 297 314 311 314 322 320 319 308 295 296 253 269 335 271 284 9 188 354 344 11 25 28 134 194 186 186 198 167 151 121 106 78 65 69 72 66 59 55 58 58
324 320 330 337 348 355 354 19 2 319 277 284 306 320 322 309 303 305 312 317 324 329 307 312 314 277 285 277 306 140 242 310 318 5 359 14 60 178 175 192 205 186 155 144 125 107 91 72 72 75 72 63 58 57
325 345 339 349 354 0 19 10 359 308 294 320 314 316 313 309 297 291 290 294 293 282 292 286 267 262 305 12 359 353 350 349 340 328 331 327 34 205 206 198 203 200 181 165 151 132 116 105 103 90 82 76 74 69
4 337 332 330 334 26 335 340 320 287 289 318 316 333 325 312 313 308 306 309 287 212 219 245 318 3 345 337 327 322 325 330 328 322 314 334 23 39 255 215 212 196 188 172 160 151 135 122 119 111 105 100 91 82
186 322 331 65 74 85 308 326 291 297 308 305 319 329 333 324 327 340 356 328 228 29 346 352 322 313 313 312 313 311 312 318 315 310 310 307 322 324 326 217 192 191 190 188 182 177 162 153 147 137 119 114 106 105
323 349 86 55 72 358 307 305 298 309 290 299 314 331 330 338 338 13 342 32 51 6 353 336 332 322 318 319 315 317 316 317 316 309 318 287 292 287 298 261 207 201 203 202 198 187 177 168 156 148 146 141 128 120
46 107 87 54 54 42 317 323 299 331 310 317 325 322 357 349 341 341 61 29 16 357 354 353 348 336 323 320 321 319 325 325 320 320 319 310 275 270 266 251 234 219 205 202 201 193 188 181 173 157 157 150 148 145
122 115 122 113 36 331 322 302 298 306 300 326 322 333 1 352 331 36 62 22 352 357 6 12 14 6 2 354 347 339 334 326 320 319 319 314 304 283 264 251 234 221 216 203 192 189 188 180 179 173 167 163 158 153
162 141 141 198 183 339 274 309 334 334 312 334 323 4 349 327 330 50 25 357 350 355 2 13 16 19 8 4 356 346 338 328 322 319 331 320 307 296 273 241 219 213 191 191 190 189 189 186 182 180 177 174 170 168
166 173 168 164 158 217 332 318 345 318 339 324 333 350 358 319 31 47 7 348 350 357 9 10 5 7 13 18 8 8 6 7 8 358 344 348 341 305 282 267 240 202 196 196 198 195 192 191 189 187 185 184 181 172
153 182 183 194 202 242 263 267 303 273 276 300 359 341 339 28 53 35 355 356 358 13 14 9 15 19 21 22 26 30 36 41 42 41 30 53 40 61 41 349 324 193 213 204 200 200 198 195 193 193 190 188 188 184
185 174 169 180 194 196 223 223 228 240 252 292 310 32 48 33 9 338 335 341 6 6 12 13 20 23 23 27 28 28 32 42 54 61 70 64 55 45 67 87 5 222 201 204 209 203 201 199 197 197 195 192 188 187
187 176 168 183 177 194 215 215 240 240 275 282 301 83 119 107 357 343 344 351 355 3 10 13 15 18 20 23 25 32 34 33 35 36 31 27 26 22 20 14 16 25 200 230 201 192 201 198 198 199 201 206 198 190
174 169 175 185 201 208 196 195 242 236 237 245 139 127 123 116 53 25 13 10 10 13 14 17 16 22 20 20 20 24 30 36 36 31 25 22 21 18 17 19 7 40 48 270 186 190 189 192 198 200 207 210 199 200
154 172 185 207 229 206 214 230 230 217 205 212 210 177 161 158 139 33 28 18 12 10 20 22 21 21 21 19 21 23 26 34 37 40 38 36 32 30 26 27 30 17 50 89 118 138 154 162 177 189 198 202 207 215
176 188 184 203 200 195 225 230 215 200 171 161 145 146 144 157 116 38 6 20 21 19 21 21 18 19 20 23 27 30 32 26 30 32 35 38 39 39 37 33 34 40 36 55 96 136 156 170 186 198 200 201 206 206
181 190 205 233 219 210 175 280 214 133 129 131 119 119 121 112 104 51 20 21 25 18 15 24 19 19 22 28 31 33 32 29 35 36 35 38 42 42 43 50 49 50 54 62 70 74 82 92 99 100 124 171 186 189
Wind_Speed_850mb
34 38 41 47 51 56 56 54 53 48 46 44 40 35 30 21 16 18 23 25 27 27 52 51 45 35 25 17 7 17 22 3 13 6 6 6 5 7 8 18 16 6 8 4 6 10 6 18 21 9 19 54 44 45
31 36 44 50 54 54 52 54 51 45 45 44 41 38 31 26 16 19 30 22 28 35 46 60 62 60 62 57 40 12 12 15 10 6 5 6 6 7 12 8 9 4 5 6 6 8 31 42 21 49 52 54 61 49
36 41 46 52 55 52 53 54 50 46 44 44 41 37 33 28 23 19 28 26 32 36 51 25 7 9 17 18 27 21 17 17 12 12 5 6 10 6 6 9 13 11 18 5 8 9 29 43 29 32 38 55 68 53
36 40 48 53 54 51 52 52 50 46 46 45 41 38 35 30 27 23 27 23 26 19 11 9 13 34 30 37 39 50 27 10 13 9 8 6 7 10 7 11 14 13 13 7 14 26 36 4 39 44 51 52 20 11
37 41 48 52 51 51 52 51 49 47 45 45 42 40 37 34 30 29 33 32 33 27 10 26 51 9 9 19 32 39 44 36 18 6 7 6 10 9 8 7 15 8 17 5 7 33 24 18 44 43 54 49 23 17
40 43 49 50 50 51 52 51 49 48 46 43 40 38 41 36 26 14 9 6 7 29 9 8 15 11 10 11 18 29 33 29 16 9 7 10 15 6 5 7 10 24 28 27 18 39 35 35 38 45 54 45 27 24
40 45 48 50 49 49 51 51 49 48 46 41 43 43 35 26 24 18 8 7 11 16 8 11 11 7 9 12 10 14 23 15 18 9 13 10 10 13 5 8 15 29 32 23 26 37 31 35 35 43 50 42 36 42
42 44 47 48 48 48 48 49 50 48 44 44 44 35 25 15 17 20 15 27 17 16 9 6 9 12 10 9 9 15 12 16 16 10 11 8 9 8 8 8 18 22 21 20 28 29 30 35 36 38 38 33 48 54
42 44 47 47 47 46 45 47 50 50 45 44 37 19 9 4 5 7 10 13 19 23 8 8 5 6 2 10 7 13 10 7 10 7 8 8 4 9 7 12 18 23 22 24 26 34 39 41 39 38 39 42 44 47
42 44 45 45 46 43 43 44 48 49 46 38 16 6 6 7 12 16 11 10 13 16 14 9 17 12 21 12 7 4 11 5 6 10 6 5 8 21 15 6 9 14 19 21 30 33 36 41 41 37 33 31 31 40
40 42 42 42 43 42 42 40 43 47 45 27 14 7 18 16 8 10 9 12 15 9 14 16 25 16 9 9 6 5 3 4 5 4 6 4 5 2 8 7 7 10 14 17 19 21 25 23 27 32 33 31 38 44
38 37 36 38 39 39 38 34 34 35 26 32 30 35 17 4 14 10 9 8 10 8 12 10 5 11 9 9 7 4 5 4 4 6 6 5 1 8 9 8 7 9 12 16 18 22 28 30 33 32 26 26 30 32
33 31 32 32 33 32 32 35 35 36 40 18 7 8 8 8 9 11 10 8 8 8 6 3 2 6 9 10 8 5 7 5 4 5 5 5 5 13 11 8 6 7 11 14 15 22 28 31 35 36 31 25 23 26
28 26 26 28 28 28 35 38 38 37 18 7 7 9 8 7 8 7 12 12 9 6 6 15 7 5 11 9 7 7 5 3 5 5 4 5 4 14 16 9 6 5 8 13 15 21 28 29 33 36 37 32 25 26
23 21 22 20 24 31 35 38 37 21 8 8 8 8 7 14 25 25 24 26 16 17 16 15 9 10 4 2 5 3 7 6 6 3 7 9 7 15 17 14 8 5 8 11 13 18 24 28 31 33 35 33 33 32
17 17 14 23 28 32 35 34 17 6 5 5 9 11 19 27 21 18 21 19 25 22 23 15 8 5 7 2 8 9 3 4 3 3 9 7 2 16 19 14 12 8 9 10 11 13 18 23 27 28 31 35 36 37
11 8 20 24 25 28 29 12 7 3 4 6 8 19 22 25 29 29 28 22 22 23 8 8 6 5 2 3 4 3 2 7 16 14 8 6 2 11 13 11 12 15 11 11 12 11 14 18 20 23 31 30 33 37
5 11 17 20 24 22 8 7 5 4 5 12 18 30 32 28 29 32 26 19 16 15 16 9 15 6 4 5 3 3 3 15 20 11 13 7 5 10 14 10 13 13 16 12 9 12 13 12 17 22 24 23 26 28
5 8 10 15 19 12 6 5 5 7 8 22 20 27 29 29 31 28 27 25 20 16 14 12 10 8 5 15 24 28 31 31 31 28 22 14 12 5 15 18 14 16 18 20 18 12 11 11 12 15 18 19 23 22
1 5 14 16 11 1 3 2 5 8 9 16 26 32 39 29 26 20 17 13 10 11 9 7 8 15 17 21 26 32 31 31 33 32 24 14 15 9 4 15 19 21 20 21 20 20 15 15 14 15 16 19 20 23
2 12 15 4 4 2 1 6 6 8 16 15 27 38 29 26 19 10 7 11 5 8 10 14 24 28 31 31 25 24 31 30 29 27 31 32 19 19 10 10 16 24 27 28 27 23 20 17 16 17 19 18 20 23
5 9 7 7 4 2 2 4 11 19 10 20 26 29 21 21 17 21 24 14 11 14 27 31 33 39 39 32 31 29 28 28 28 24 24 23 29 22 18 12 24 31 32 30 30 29 26 23 22 21 22 23 22 23
2 8 4 4 3 1 4 8 6 9 6 20 24 13 10 13 18 30 9 18 14 38 39 36 31 27 29 31 26 20 25 31 31 28 23 20 22 31 25 19 22 26 32 34 33 33 32 31 30 26 26 24 22 25
11 5 4 2 2 3 7 4 6 9 8 12 9 12 13 16 22 7 6 14 37 47 56 59 51 40 33 31 28 29 27 30 32 30 24 25 22 19 20 21 25 25 26 29 36 37 36 36 38 32 29 27 26 24
5 3 5 2 2 1 3 5 6 5 6 17 7 7 9 11 4 7 8 28 42 47 59 62 58 49 49 47 40 36 29 28 30 35 28 23 25 21 17 17 20 22 26 30 37 42 42 40 39 37 35 33 31 31
5 7 7 6 5 3 3 4 3 8 8 6 5 11 8 6 6 8 14 33 38 50 57 56 50 52 55 58 56 50 36 23 17 20 19 23 16 13 17 18 16 21 28 33 34 42 45 46 45 44 41 40 40 35
6 7 9 7 3 4 5 4 7 4 4 4 6 8 6 6 7 8 22 29 40 40 40 38 38 42 49 59 65 65 47 31 20 15 9 13 10 6 6 4 4 5 13 27 34 40 45 47 47 48 45 43 43 37
5 9 9 11 7 5 4 3 4 4 3 2 8 5 4 5 5 13 18 30 31 32 32 33 35 36 43 54 60 63 64 57 46 32 28 36 37 25 10 9 8 14 19 18 27 34 41 44 44 47 48 48 49 43
9 11 10 9 8 8 10 8 5 3 3 5 3 4 6 4 6 11 18 23 25 27 32 37 41 36 36 34 46 59 64 66 66 65 62 64 64 55 44 29 10 13 4 12 31 30 32 36 42 47 56 56 54 46
13 17 9 10 7 10 10 10 6 6 6 1 7 10 10 8 10 14 15 19 24 28 28 29 35 38 41 43 42 44 54 61 65 63 57 57 57 51 44 43 32 8 16 1 15 26 27 32 41 43 47 53 57 56
16 15 8 8 6 7 5 6 7 8 9 7 10 14 15 14 8 14 23 20 19 20 24 28 31 38 38 41 44 44 46 56 55 53 51 49 47 49 49 44 41 34 16 17 20 19 18 22 29 35 42 47 48 52
17 14 11 8 6 7 5 5 5 11 13 10 7 12 12 10 6 6 23 23 21 23 24 25 29 31 32 30 29 31 35 39 48 52 54 51 51 52 48 47 43 36 29 27 23 24 24 21 21 24 29 31 32 42
11 13 12 7 5 5 5 4 4 7 6 6 6 8 8 6 7 5 10 22 25 26 24 21 21 19 25 29 31 30 31 31 34 37 39 43 45 46 45 47 47 47 45 43 36 27 23 18 17 13 10 11 19 30
Wind_Direction_850mb
327 330 329 327 331 332 333 332 331 331 332 329 326 324 320 315 277 270 274 272 261 270 279 275 274 260 249 230 245 302 319 84 288 325 331 7 291 315 291 287 294 288 302 297 261 239 262 1 318 248 332 312 299 305
321 324 326 330 329 330 331 331 331 335 334 331 327 323 322 317 294 267 274 270 283 263 266 285 278 264 255 253 258 239 272 326 276 306 337 314 277 264 301 290 319 291 258 289 246 299 288 295 257 278 278 274 284 287
311 321 328 325 326 327 329 330 330 333 331 331 330 325 323 316 308 259 267 277 283 283 298 273 277 276 235 219 224 221 241 217 227 239 302 279 266 277 279 286 311 296 310 262 307 280 294 311 301 302 298 280 283 270
311 322 322 323 325 326 328 329 328 331 328 328 327 327 326 321 314 299 266 252 264 276 280 269 294 294 272 244 232 230 240 249 265 254 240 256 257 241 274 283 289 269 345 276 259 274 310 266 320 337 327 328 346 297
310 320 320 323 324 326 327 327 328 329 327 324 324 323 312 310 301 292 281 264 241 234 282 293 304 278 242 225 229 226 230 240 263 261 222 243 252 278 260 269 255 316 328 268 284 302 317 318 337 341 340 341 7 9
308 317 320 321 322 324 324 326 328 327 325 325 320 317 310 302 295 296 304 232 249 219 259 288 308 274 246 252 226 217 220 225 220 244 239 241 251 234 282 280 332 314 325 327 328 330 313 331 329 344 341 346 15 24
309 315 317 320 322 322 322 324 327 325 328 324 320 315 308 291 262 211 240 234 294 191 252 281 282 230 230 216 189 192 201 205 214 235 225 248 253 203 250 285 318 340 344 341 339 344 347 355 346 346 345 0 27 50
312 314 317 320 321 321 322 323 324 324 328 325 323 314 303 295 249 261 264 251 239 205 246 267 268 260 197 229 207 185 191 206 217 245 242 239 261 223 251 327 343 353 339 351 359 11 0 349 349 346 353 7 36 39
312 314 317 319 320 320 322 324 323 325 331 330 324 312 295 275 227 252 229 267 253 220 263 238 265 302 217 265 257 195 191 215 217 230 240 218 199 242 318 350 5 2 359 358 4 16 2 358 352 355 7 13 31 33
311 314 317 318 319 320 322 324 323 329 336 335 336 296 254 224 249 280 279 212 203 202 230 248 236 250 302 281 254 210 187 227 235 218 225 244 260 265 260 294 359 19 7 13 16 14 5 353 352 359 8 22 18 27
310 314 317 318 319 321 326 328 328 331 341 355 334 280 273 272 261 224 241 216 186 221 216 227 226 239 250 248 285 329 325 264 265 89 282 303 270 89 139 144 73 56 27 22 30 17 18 4 360 1 7 18 28 27
312 316 318 317 319 325 328 329 334 339 327 313 297 292 299 253 224 235 211 208 224 238 187 233 190 221 253 240 256 183 249 236 268 336 266 261 265 138 162 137 99 66 47 26 33 25 20 22 22 26 32 33 33 36
313 315 315 316 319 327 337 337 332 331 332 310 273 264 238 222 240 228 214 219 215 212 76 114 182 272 224 221 251 233 232 242 327 249 270 280 33 154 160 147 121 78 48 35 43 33 24 28 32 38 43 52 47 43
309 317 314 313 317 323 330 329 331 337 330 283 276 271 241 213 244 261 294 351 346 111 283 274 195 238 224 178 227 227 155 212 233 232 263 15 265 183 162 170 148 99 61 33 35 38 37 31 28 33 38 47 61 61
312 316 315 319 324 327 326 319 319 317 270 270 264 257 241 323 314 305 316 320 324 316 312 310 253 173 267 354 258 237 190 233 218 245 29 3 301 200 181 171 181 149 90 55 36 33 36 39 39 39 39 44 55 62
314 320 321 327 327 327 320 320 319 279 252 272 265 295 315 319 332 338 344 343 333 327 307 269 268 267 228 236 201 203 209 229 354 21 13 340 251 199 197 185 181 180 116 91 67 62 53 53 50 53 50 50 51 60
321 321 325 329 336 337 337 2 37 9 302 294 283 297 297 314 311 314 322 320 319 308 295 296 253 269 335 271 284 9 188 354 344 11 25 28 134 194 186 186 198 167 151 121 106 78 65 69 72 66 59 55 58 58
324 320 330 337 348 355 354 19 2 319 277 284 306 320 322 309 303 305 312 317 324 329 307 312 314 277 285 277 306 140 242 310 318 5 359 14 60 178 175 192 205 186 155 144 125 107 91 72 72 75 72 63 58 57
325 345 339 349 354 0 19 10 359 308 294 320 314 316 313 309 297 291 290 294 293 282 292 286 267 262 305 12 359 353 350 349 340 328 331 327 34 205 206 198 203 200 181 165 151 132 116 105 103 90 82 76 74 69
4 337 332 330 334 26 335 340 320 287 289 318 316 333 325 312 313 308 306 309 287 212 219 245 318 3 345 337 327 322 325 330 328 322 314 334 23 39 255 215 212 196 188 172 160 151 135 122 119 111 105 100 91 82
186 322 331 65 74 85 308 326 291 297 308 305 319 329 333 324 327 340 356 328 228 29 346 352 322 313 313 312 313 311 312 318 315 310 310 307 322 324 326 217 192 191 190 188 182 177 162 153 147 137 119 114 106 105
323 349 86 55 72 358 307 305 298 309 290 299 314 331 330 338 338 13 342 32 51 6 353 336 332 322 318 319 315 317 316 317 316 309 318 287 292 287 298 261 207 201 203 202 198 187 177 168 156 148 146 141 128 120
46 107 87 54 54 42 317 323 299 331 310 317 325 322 357 349 341 341 61 29 16 357 354 353 348 336 323 320 321 319 325 325 320 320 319 310 275 270 266 251 234 219 205 202 201 193 188 181 173 157 157 150 148 145
122 115 122 113 36 331 322 302 298 306 300 326 322 333 1 352 331 36 62 22 352 357 6 12 14 6 2 354 347 339 334 326 320 319 319 314 304 283 264 251 234 221 216 203 192 189 188 180 179 173 167 163 158 153
162 141 141 198 183 339 274 309 334 334 312 334 323 4 349 327 330 50 25 357 350 355 2 13 16 19 8 4 356 346 338 328 322 319 331 320 307 296 273 241 219 213 191 191 190 189 189 186 182 180 177 174 170 168
166 173 168 164 158 217 332 318 345 318 339 324 333 350 358 319 31 47 7 348 350 357 9 10 5 7 13 18 8 8 6 7 8 358 344 348 341 305 282 267 240 202 196 196 198 195 192 191 189 187 185 184 181 172
153 182 183 194 202 242 263 267 303 273 276 300 359 341 339 28 53 35 355 356 358 13 14 9 15 19 21 22 26 30 36 41 42 41 30 53 40 61 41 349 324 193 213 204 200 200 198 195 193 193 190 188 188 184
185 174 169 180 194 196 223 223 228 240 252 292 310 32 48 33 9 338 335 341 6 6 12 13 20 23 23 27 28 28 32 42 54 61 70 64 55 45 67 87 5 222 201 204 209 203 201 199 197 197 195 192 188 187
187 176 168 183 177 194 215 215 240 240 275 282 301 83 119 107 357 343 344 351 355 3 10 13 15 18 20 23 25 32 34 33 35 36 31 27 26 22 20 14 16 25 200 230 201 192 201 198 198 199 201 206 198 190
174 169 175 185 201 208 196 195 242 236 237 245 139 127 123 116 53 25 13 10 10 13 14 17 16 22 20 20 20 24 30 36 36 31 25 22 21 18 17 19 7 40 48 270 186 190 189 192 198 200 207 210 199 200
154 172 185 207 229 206 214 230 230 217 205 212 210 177 161 158 139 33 28 18 12 10 20 22 21 21 21 19 21 23 26 34 37 40 38 36 32 30 26 27 30 17 50 89 118 138 154 162 177 189 198 202 207 215
176 188 184 203 200 195 225 230 215 200 171 161 145 146 144 157 116 38 6 20 21 19 21 21 18 19 20 23 27 30 32 26 30 32 35 38 39 39 37 33 34 40 36 55 96 136 156 170 186 198 200 201 206 206
181 190 205 233 219 210 175 280 214 133 129 131 119 119 121 112 104 51 20 21 25 18 15 24 19 19 22 28 31 33 32 29 35 36 35 38 42 42 43 50 49 50 54 62 70 74 82 92 99 100 124 171 186 189